Lexington Weather

Lexington, Massachusetts, USA

45°F
5/12/2021 3:37am 
  • Lexington Conditions: Clear
  • Temperature: 45.0°F / 7.2°CColder 1.0°F than last hour.
  • Dew Point: 32.7°FIncreased 1.4°Fsince last hour.
  • Relative Humidity: 62%Increased 6.0% since last hour.
  • Wind: Wind from WNW WNW 5 mph, 10-min avg: 1 mph, gust: 5 mph
  • Barometer: 29.92 in Steady
  • Visibility: 10 miles
  • Rain Today: 0.00 in
  •   

Regional Weather Roundup
for Boston / Norton, MA

        
000
ASUS41 KBOX 092104
RWRBOX

REGIONAL WEATHER ROUNDUP
NATIONAL WEATHER SERVICE BOSTON/NORTON MA
500 PM EDT SUN MAY 09 2021

NOTE:  "FAIR" INDICATES FEW OR NO CLOUDS BELOW 12,000 FEET WITH NO 
SIGNIFICANT WEATHER AND/OR OBSTRUCTIONS TO VISIBILITY.

MAZALL-092200-
EASTERN MASSACHUSETTS
  
CITY           SKY/WX    TMP DP  RH WIND       PRES   REMARKS
BOSTON         CLOUDY    66  31  27 SW21      29.88R                  
BEVERLY        PTSUNNY   60  43  53 SE5       29.86R                  
LAWRENCE       PTSUNNY   64  34  32 W13G20    29.88R                  
BEDFORD        CLOUDY    64  32  30 SW10G20   29.87R                  
BLUE HILL        N/A     61  30  31 W16G25    29.88R                  
NORWOOD        PTSUNNY   65  31  28 W13G18    29.89R                  
MARSHFIELD     PTSUNNY   68  32  26 W10G21    29.88R                  
PLYMOUTH       PTSUNNY   61  39  44 SW13G26   29.90R                  
TAUNTON        PTSUNNY   62  40  44 SW16G22   29.91R                  
NEW BEDFORD    PTSUNNY   59  37  44 SW23G29   29.92R                  
$$

MAZALL-092200-
CAPE COD AND THE ISLANDS
  
CITY           SKY/WX    TMP DP  RH WIND       PRES   REMARKS
FALMOUTH       SUNNY     55  41  58 SW23G32   29.94R                  
HYANNIS        PTSUNNY   58  41  53 SW23G33   29.91R                  
CHATHAM        PTSUNNY   56  44  64 SW13G22   29.94S                  
PROVINCETOWN   PTSUNNY   56  45  66 SW22G29   29.90S                  
NANTUCKET      PTSUNNY   54  45  71 SW20G28   29.96S                  
MARTHAS VNYRD  PTSUNNY   54  44  69 SW16G24   29.96R                  
$$
 
MAZALL-092200-
CENTRAL AND WESTERN MASSACHUSETTS
  
CITY           SKY/WX    TMP DP  RH WIND       PRES   REMARKS
WORCESTER      CLOUDY    60  29  30 W15G23    29.91R                  
FITCHBURG      CLOUDY    63  29  27 W13       29.89R                  
ORANGE         CLOUDY    62  27  26 W6        29.89F                  
SPRINGFIELD    CLOUDY    64  31  30 SW7       29.87F                  
WESTFIELD      CLOUDY    64  33  31 SW10      29.88F                  
NORTH ADAMS    CLOUDY    60  31  33 SW3       29.88F                  
PITTSFIELD     LGT RAIN  54  36  50 SW12G22   29.88F                  
$$
 
RIZALL-092200-
RHODE ISLAND
  
CITY           SKY/WX    TMP DP  RH WIND       PRES   REMARKS
PROVIDENCE     CLOUDY    65  38  36 SW20      29.92R                  
NEWPORT        PTSUNNY   53  43  68 SW10G23   29.95R                  
BLOCK ISLAND   PTSUNNY   52  42  69 SW22G30   29.99R                  
SMITHFIELD       N/A     63  32  31 W10       29.91R                  
WESTERLY       CLOUDY    55  41  59 SW13G20   29.97R                  
$$
 
CTZALL-092200-
CONNECTICUT
  
CITY           SKY/WX    TMP DP  RH WIND       PRES   REMARKS
BRADLEY INTL   CLOUDY    65  28  24 SW16G22   29.89F                  
HARTFORD       CLOUDY    63  30  28 VRB7      29.91F                  
BRIDGEPORT     CLOUDY    59  42  53 SW16      29.96F                  
DANBURY        CLOUDY    58  38  47 SW8       29.95F                  
GROTON         CLOUDY    56  44  64 SW20G26   29.95R                  
NEW HAVEN      PTSUNNY   58  45  62 SW14G22   29.95F                  
CHESTER        FAIR      59  39  47 SW8G23    29.95F                  
MERIDEN        CLOUDY    59  35  40 VRB6G20   29.94S                  
WILLIMANTIC    PTSUNNY   62  34  35 SW12G22   29.93R                  
OXFORD         LGT RAIN  53  42  66 S12G21    29.94F                  
$$

MEZ002-015-021-024-NHZ003-005-008-011-012-014-VTZ005-008-092200-
NORTHERN NEW ENGLAND
  
CITY           SKY/WX    TMP DP  RH WIND       PRES   REMARKS
PORTLAND ME    MOSUNNY   58  41  53 S12G23    29.83R                  
BANGOR ME      PTSUNNY   65  29  25 NW12G18   29.78R                  
CONCORD NH     CLOUDY    61  33  35 W15G21    29.87S                  
MANCHESTER NH  CLOUDY    64  30  27 W13       29.85F                  
NASHUA NH      CLOUDY    65  32  29 W13G18    29.87S                  
PORTSMOUTH NH  CLOUDY    64  27  25 W10       29.86R                  
JAFFREY NH     CLOUDY    60  28  29 SW8       29.89S                  
KEENE NH       CLOUDY    61  30  31 SW9       29.88S                  
BURLINGTON VT  PTSUNNY   61  29  29 SW3       29.86S                  
MT. WASHINGTON PTSUNNY   30  28  93 W26         N/A  WCI  16          
$$

NYZ052-076-092200-
EASTERN NEW YORK
  
CITY           SKY/WX    TMP DP  RH WIND       PRES   REMARKS
ALBANY         CLOUDY    57  34  41 SE8       29.88F                  
NEW YORK CITY  CLOUDY    54  41  61 SW9       29.98F                  
$$
 
ANZALL-092200-
MARINE OBSERVATIONS
  
STATION/POSITION TIME  TEMP    WIND        PRES    VSBY  WAVE
                       AIR SEA DIR/SP/G                  HT/PER
                 (UTC) (F)     (DEG/KT/KT) (MB)    (MI)  (FT/S)
BOSTON BUOY      2040   51 49  150/  8/ 10 1011.5R
BUZZARDS BAY     2000          230/ 26/ 28 1014.3F
NANTUCKET SOUND  2040      53                N/A
MASS BAY-STELLWA 2004   53     160/ 14/ 17 1010.4F  1 7/8  1/ 3
ISLE OF SHOALS   2000   52     160/ 21/ 22 1010.3F
S OF BLOCK IS    2026      49                N/A           5/ 5
$$

......................KEY.........................
  SKY/WX - SKY CONDITION/PRESENT WEATHER
  TMP    - TEMPERATURE IN FAHRENHEIT
  DWPT   - DEWPOINT IN FAHRENHEIT
  RH     - RELATIVE HUMIDITY IN PERCENT
  WIND   - DIRECTION AND SPEED IN MPH
  PRES   - MEAN SEA LEVEL PRESSURE IN INCHES OF HG
  WCI    - WIND CHILL INDEX
  VSB    - VISIBILITY IN MILES
  HX     - HEAT INDEX
  TC     - TEMPERATURE IN CELSIUS
  VRB    - VARIABLE WIND DIRECTION
  N/A    - NOT AVAILABLE
  
      

Other recent Regional Weather Roundups

Wed May 12, 3:04am

Wed May 12, 2:04am

Wed May 12, 1:04am

Wed May 12, 12:05am

Tue May 11, 11:05pm

Tue May 11, 10:04pm

Tue May 11, 9:05pm

Tue May 11, 8:05pm

Tue May 11, 7:04pm

Tue May 11, 6:04pm

Tue May 11, 5:04pm

Tue May 11, 4:05pm

Tue May 11, 3:04pm

Tue May 11, 2:05pm

Tue May 11, 1:04pm

Tue May 11, 12:05pm

Tue May 11, 11:05am

Tue May 11, 10:04am

Tue May 11, 9:04am

Tue May 11, 8:04am

Tue May 11, 7:05am

Tue May 11, 6:04am

Tue May 11, 5:04am

Tue May 11, 4:04am

Tue May 11, 3:04am

Tue May 11, 2:04am

Tue May 11, 1:04am

Tue May 11, 12:04am

Mon May 10, 11:04pm

Mon May 10, 10:04pm

Mon May 10, 9:05pm

Mon May 10, 8:04pm

Mon May 10, 7:05pm

Mon May 10, 6:04pm

Mon May 10, 5:04pm

Mon May 10, 4:04pm

Mon May 10, 3:04pm

Mon May 10, 2:04pm

Mon May 10, 1:04pm

Mon May 10, 12:04pm

Mon May 10, 11:05am

Mon May 10, 10:04am

Mon May 10, 9:04am

Mon May 10, 8:04am

Mon May 10, 7:04am

Mon May 10, 6:04am

Mon May 10, 5:05am

Mon May 10, 4:04am

Mon May 10, 3:04am

Mon May 10, 2:04am

Mon May 10, 1:04am

Mon May 10, 12:04am

Sun May 9, 11:04pm

Sun May 9, 10:04pm

Sun May 9, 9:04pm

Sun May 9, 8:04pm

Sun May 9, 7:05pm

Sun May 9, 6:04pm

Sun May 9, 4:04pm

Sun May 9, 3:04pm

Sun May 9, 2:04pm

Sun May 9, 1:05pm

Sun May 9, 12:04pm

Sun May 9, 11:05am

Sun May 9, 10:04am

Sun May 9, 9:04am

Sun May 9, 8:04am

Sun May 9, 7:04am

Sun May 9, 6:04am

Sun May 9, 5:04am

Sun May 9, 4:04am

Sun May 9, 3:04am

Sun May 9, 2:04am

Sun May 9, 1:05am

Sun May 9, 12:04am

Sat May 8, 11:05pm

Sat May 8, 10:04pm

Sat May 8, 9:05pm

Sat May 8, 8:04pm

Sat May 8, 7:04pm

Sat May 8, 6:04pm

Sat May 8, 5:05pm

Sat May 8, 4:04pm

Sat May 8, 3:05pm

Sat May 8, 2:05pm

Sat May 8, 1:05pm

Sat May 8, 12:04pm

Sat May 8, 11:05am

Sat May 8, 10:04am

Sat May 8, 9:04am

Sat May 8, 8:04am

Sat May 8, 7:04am

Sat May 8, 6:04am

Sat May 8, 5:04am

Sat May 8, 4:04am

Sat May 8, 3:04am

Sat May 8, 2:04am

Sat May 8, 1:05am

Sat May 8, 12:04am

Fri May 7, 11:04pm

Fri May 7, 10:05pm

Fri May 7, 9:04pm

Fri May 7, 8:04pm

Fri May 7, 7:05pm

Fri May 7, 6:04pm

Fri May 7, 5:05pm

Fri May 7, 4:04pm

Fri May 7, 3:04pm

Fri May 7, 2:05pm

Fri May 7, 1:04pm

Fri May 7, 12:04pm

Fri May 7, 11:05am

Fri May 7, 10:04am

Fri May 7, 9:04am

Fri May 7, 8:05am

Fri May 7, 7:04am

Fri May 7, 6:04am

Fri May 7, 5:04am

Fri May 7, 4:04am

Fri May 7, 3:04am

Fri May 7, 2:05am

Fri May 7, 1:04am

Fri May 7, 12:05am

Thu May 6, 11:04pm

Thu May 6, 10:04pm

Thu May 6, 9:05pm

Thu May 6, 8:04pm

Thu May 6, 7:04pm

Thu May 6, 6:04pm

Thu May 6, 5:05pm

Thu May 6, 4:04pm

Thu May 6, 3:04pm

Thu May 6, 2:05pm

Thu May 6, 1:04pm

Thu May 6, 12:04pm

Thu May 6, 11:04am

Thu May 6, 10:04am

Thu May 6, 9:04am

Thu May 6, 8:04am

Thu May 6, 7:04am

Thu May 6, 6:04am

Thu May 6, 5:04am

Thu May 6, 4:04am

Thu May 6, 3:04am

Thu May 6, 2:05am

Thu May 6, 1:04am

Thu May 6, 12:05am

Wed May 5, 11:04pm

Wed May 5, 10:04pm

Wed May 5, 9:05pm

Wed May 5, 8:04pm

Wed May 5, 7:05pm

Wed May 5, 6:04pm

Wed May 5, 5:04pm

Wed May 5, 4:04pm

Wed May 5, 3:04pm

Wed May 5, 2:05pm

Wed May 5, 1:05pm

Wed May 5, 12:04pm

Wed May 5, 11:05am

Wed May 5, 10:04am

Wed May 5, 9:04am

Wed May 5, 8:04am

Wed May 5, 7:04am

Wed May 5, 6:05am

Wed May 5, 5:04am

Wed May 5, 4:04am

Meta data:

ID: 33d1164c-4e3a-4141-9def-22b84bcb16eb
Link: https://api.weather.gov/products/33d1164c-4e3a-4141-9def-22b84bcb16eb